EW7614 Weather Reports


Display with metric or nautical units.
time (UTC)temp
F
wind
direction
speed
MPH
gust
MPH
rain 1hr
in
rain 24hr
in
rain mn
in
humidity
%
barometer
mb
20260904151502 87 123 0.0 4.0 0.00 0.00 0.00 36 1011.2
20260904150029 88 221 0.0 1.0 0.00 0.00 0.00 36 1011.3
20260904144616 88 57 0.0 1.0 0.00 0.00 0.00 38 1011.5
20260904143114 87 217 0.0 0.0 0.00 0.00 0.00 44 1011.8
20260904141626 87 229 0.0 2.0 0.00 0.00 0.00 44 1011.9
20260904140054 86 76 0.0 1.0 0.00 0.00 0.00 47 1012.3
20260904134501 86 243 0.0 0.0 0.00 0.00 0.00 45 1012.5
20260904133029 86 128 0.0 2.0 0.00 0.00 0.00 45 1012.6
20260904131618 85 84 0.0 3.0 0.00 0.00 0.00 41 1012.8
20260904130053 85 78 0.0 2.0 0.00 0.00 0.00 44 1013.1
20260904124632 85 96 0.0 1.0 0.00 0.00 0.00 47 1013.4
20260904123039 84 77 0.0 2.0 0.00 0.00 0.00 42 1013.8
20260904121505 83 96 0.0 2.0 0.00 0.00 0.00 48 1014.1
20260904120049 83 74 0.0 3.0 0.00 0.00 0.00 45 1014.4
20260904114617 82 85 0.0 1.0 0.00 0.00 0.00 49 1014.5
20260904113041 81 85 0.0 2.0 0.00 0.00 0.00 51 1014.9
20260904111622 80 116 0.0 1.0 0.00 0.00 0.00 49 1015.2
20260904110023 80 71 0.0 2.0 0.00 0.00 0.00 51 1015.6
20260904104610 78 107 0.0 1.0 0.00 0.00 0.00 51 1015.8
20260904103038 78 121 0.0 1.0 0.00 0.00 0.00 50 1016.1
20260904101611 77 74 0.0 1.0 0.00 0.00 0.00 49 1016.3
20260904100029 76 258 0.0 2.0 0.00 0.00 0.00 54 1016.6
20260904094606 75 253 0.0 1.0 0.00 0.00 0.00 58 1016.9
20260904093058 74 164 0.0 2.0 0.00 0.00 0.00 57 1017.1
20260904091617 72 229 0.0 2.0 0.00 0.00 0.00 62 1017.3
20260904090028 71 217 0.0 2.0 0.00 0.00 0.00 60 1017.4
20260904084612 71 33 0.0 1.0 0.00 0.00 0.00 63 1017.6
20260904083035 70 228 0.0 1.0 0.00 0.00 0.00 67 1017.7
20260904081620 68 294 0.0 1.0 0.00 0.00 0.00 72 1017.8
20260904080035 68 271 0.0 1.0 0.00 0.00 0.00 71 1017.8
20260904074629 66 271 0.0 0.0 0.00 0.00 0.00 74 1018.1
20260904073118 63 279 0.0 1.0 0.00 0.00 0.00 80 1018.1
20260904071602 62 298 0.0 0.0 0.00 0.00 0.00 83 1018.3
20260904070138 59 298 0.0 1.0 0.00 0.00 0.00 85 1018.5
20260904064536 58 289 0.0 1.0 0.00 0.00 0.00 88 1018.6
20260904063119 57 290 0.0 1.0 0.00 0.00 0.00 89 1018.7
20260904061526 56 290 0.0 0.0 0.00 0.00 0.00 91 1018.9
20260904060117 55 290 0.0 0.0 0.00 0.00 0.00 91 1019.0
20260904053111 54 275 0.0 0.0 0.00 0.00 0.00 91 1019.1
20260904051518 54 273 0.0 0.0 0.00 0.00 0.00 91 1019.0
20260904050108 54 271 0.0 1.0 0.00 0.00 0.00 92 1019.1
20260904044530 54 270 0.0 0.0 0.00 0.00 0.00 92 1018.9
20260904043115 55 307 0.0 1.0 0.00 0.00 0.00 89 1018.7
20260904041546 55 293 0.0 0.0 0.00 0.00 0.00 91 1018.8
20260904040132 56 292 0.0 1.0 0.00 0.00 0.00 88 1018.7
20260904034544 56 319 0.0 0.0 0.00 0.00 0.00 88 1018.8
20260904033110 56 318 0.0 0.0 0.00 0.00 0.00 89 1018.7
20260904031522 57 319 0.0 0.0 0.00 0.00 0.00 88 1018.7
20260904030117 57 277 0.0 0.0 0.00 0.00 0.00 88 1018.7
20260904024652 58 63 0.0 0.0 0.00 0.00 0.00 87 1018.7
20260904023039 58 61 0.0 0.0 0.00 0.00 0.00 86 1019.0
20260904021627 58 61 0.0 0.0 0.00 0.00 0.00 85 1018.9
20260904020117 59 61 0.0 0.0 0.00 0.00 0.00 84 1019.0
20260904014538 59 61 0.0 0.0 0.00 0.00 0.00 85 1019.1
20260904013115 60 61 0.0 0.0 0.00 0.00 0.00 84 1018.9
20260904010058 61 42 0.0 1.0 0.00 0.00 0.00 86 1019.0
20260904004528 61 315 0.0 0.0 0.00 0.00 0.00 86 1019.0
20260904003111 61 288 0.0 0.0 0.00 0.00 0.00 85 1019.3
20260904001502 61 287 0.0 0.0 0.00 0.00 0.00 86 1019.2
20260904000031 61 286 0.0 2.0 0.00 0.00 0.00 86 1019.3
20260903234629 61 263 0.0 0.0 0.00 0.00 0.00 86 1019.3
20260903233102 61 262 0.0 1.0 0.00 0.00 0.00 87 1019.7
20260903231528 62 294 2.0 4.0 0.00 0.00 0.00 85 1019.6
20260903230108 63 299 3.0 5.0 0.00 0.00 0.00 84 1019.6
20260903224526 62 318 0.0 1.0 0.00 0.00 0.00 85 1019.7
20260903223025 62 320 0.0 1.0 0.00 0.00 0.00 85 1019.4
20260903221610 63 263 0.0 2.0 0.00 0.00 0.00 84 1019.4
20260903220047 64 326 2.0 7.0 0.00 0.00 0.00 81 1019.2
20260903214630 66 81 3.0 7.0 0.00 0.00 0.00 71 1019.2
20260903213023 64 299 0.0 3.0 0.00 0.00 0.00 81 1019.5
20260903211617 64 276 0.0 1.0 0.00 0.00 0.00 80 1019.5
20260903204524 65 250 0.0 0.0 0.00 0.00 0.00 79 1019.1
20260903203124 64 269 0.0 0.0 0.00 0.00 0.00 78 1019.0
20260903201548 65 273 0.0 1.0 0.00 0.00 0.00 79 1018.8
20260903200119 65 236 0.0 0.0 0.00 0.00 0.00 78 1018.5
20260903194545 66 236 0.0 7.0 0.00 0.00 0.00 75 1018.4
20260903193124 68 114 0.0 9.0 0.00 0.00 0.00 66 1018.4
20260903191616 67 206 0.0 7.0 0.00 0.00 0.00 68 1018.2
20260903190024 68 202 1.0 8.0 0.00 0.00 0.00 65 1018.2
20260903184618 68 200 0.0 4.0 0.00 0.00 0.00 67 1018.3
20260903183102 69 204 4.0 10.0 0.00 0.00 0.00 65 1017.9
20260903181524 69 184 1.0 10.0 0.00 0.00 0.00 65 1018.0
20260903180110 69 120 3.0 10.0 0.00 0.00 0.00 65 1017.8
20260903174510 70 239 5.0 8.0 0.00 0.00 0.00 64 1017.6
20260903173124 71 163 4.0 7.0 0.00 0.00 0.00 64 1017.4
20260903171621 71 196 0.0 5.0 0.00 0.00 0.00 61 1017.3
20260903170052 72 209 0.0 3.0 0.00 0.00 0.00 58 1017.4
20260903164502 72 98 0.0 1.0 0.00 0.00 0.00 59 1017.4
20260903163007 75 235 0.0 4.0 0.00 0.00 0.00 54 1017.2
20260903161539 74 224 0.0 2.0 0.00 0.00 0.00 56 1017.1
20260903160126 75 275 1.0 4.0 0.00 0.00 0.00 54 1017.1
20260903154508 75 219 1.0 3.0 0.00 0.00 0.00 55 1017.0
20260903153106 75 292 1.0 5.0 0.00 0.00 0.00 55 1017.1